Weather History for Tampa, FL

Change the Weather History Date:

Wednesday, November 23, 2011

  Actual Average Record
Temperature  
Mean Temperature 72 °F 68 °F  
Max Temperature 76 °F 77 °F 86 °F (1958)
Min Temperature 68 °F 59 °F 37 °F (1976)
Degree Days  
Heating Degree Days 0 2  
Month to date heating degree days 9 26  
Since 1 July heating degree days 10 30  
Cooling Degree Days 7 4  
Month to date cooling degree days 155 137  
Year to date cooling degree days 3845 3503  
Growing Degree Days 22 (Base 50)    
Moisture  
Dew Point 68 °F    
Average Humidity 85    
Maximum Humidity 90    
Minimum Humidity 79    
Precipitation  
Precipitation 0.12 in 0.04 in 2.26 in (1988)
Month to date precipitation 0.80 1.14  
Year to date precipitation 52.59 43.42  
Sea Level Pressure  
Sea Level Pressure 30.08 in    
Wind  
Wind Speed 7 mph (SW)    
Max Wind Speed 14 mph    
Max Gust Speed 18 mph    
Visibility 10 miles    
Events Rain    
T = Trace of Precipitation, MM = Missing Value Source: NWS Daily Summary

Daily Weather History Graph

Daily Weather History Graph

Search for Another Location

Airport:

Trip Planner

Search our weather history database for the weather conditions in past years. The results will help you decide how hot, cold, wet, or windy it might be!

Date:

Astronomy

Nov. 23, 2011 Rise Set
Actual Time 6:57 AM EST 5:35 PM EST
Civil Twilight 6:32 AM EST 6:00 PM EST
Nautical Twilight 6:03 AM EST 6:28 PM EST
Astronomical Twilight 5:35 AM EST 6:57 PM EST
Moon 5:04 AM EST (11/23) 4:13 PM EST (11/23)
Length of Visible Light 11h 27m
Length of Day
10h 37m
Waning Crescent, 4% of the Moon is Illuminated
Nov 23
Waning Crescent
Nov 25
New
Dec 2
First Quarter
Dec 10
Full
Dec 17
Last Quarter

Hourly Weather History & Observations

Time (EST) Temp. Dew Point Humidity Pressure Visibility Wind Dir Wind Speed Gust Speed Precip Events Conditions
12:53 AM 71.1 °F 66.0 °F 84% 30.12 in 10.0 mi SSE 4.6 mph - N/A   Clear
1:53 AM 71.1 °F 66.0 °F 84% 30.11 in 10.0 mi SSE 3.5 mph - N/A   Clear
2:53 AM 70.0 °F 64.9 °F 84% 30.09 in 10.0 mi South 4.6 mph - N/A   Partly Cloudy
3:53 AM 69.1 °F 64.9 °F 87% 30.08 in 10.0 mi South 6.9 mph - N/A   Mostly Cloudy
4:53 AM 69.1 °F 66.0 °F 90% 30.10 in 10.0 mi South 4.6 mph - N/A   Scattered Clouds
5:53 AM 70.0 °F 66.9 °F 90% 30.09 in 10.0 mi South 4.6 mph - N/A   Clear
6:53 AM 71.1 °F 66.9 °F 87% 30.09 in 10.0 mi South 6.9 mph - N/A   Scattered Clouds
7:53 AM 72.0 °F 68.0 °F 87% 30.10 in 10.0 mi SSE 5.8 mph - N/A   Mostly Cloudy
8:53 AM 75.0 °F 70.0 °F 84% 30.12 in 10.0 mi South 9.2 mph - N/A   Mostly Cloudy
9:53 AM 75.0 °F 70.0 °F 84% 30.12 in 10.0 mi South 10.4 mph - N/A   Mostly Cloudy
10:53 AM 75.0 °F 70.0 °F 84% 30.12 in 10.0 mi South 8.1 mph - N/A   Mostly Cloudy
11:26 AM 75.2 °F 69.8 °F 83% 30.11 in 10.0 mi South 8.1 mph - 0.00 in Rain Light Rain
11:53 AM 73.9 °F 70.0 °F 87% 30.10 in 6.0 mi SSW 5.8 mph - 0.01 in Rain Light Rain
12:53 PM 73.0 °F 70.0 °F 90% 30.06 in 5.0 mi SSW 10.4 mph - 0.09 in Rain Light Rain
1:40 PM 73.4 °F 71.6 °F 94% 30.03 in 10.0 mi SSW 10.4 mph - 0.02 in   Mostly Cloudy
1:53 PM 73.0 °F 71.1 °F 93% 30.02 in 10.0 mi SSW 11.5 mph - 0.02 in   Mostly Cloudy
2:49 PM 73.4 °F 69.8 °F 88% 30.02 in 10.0 mi SW 6.9 mph - N/A   Mostly Cloudy
2:53 PM 73.9 °F 70.0 °F 87% 30.02 in 10.0 mi WSW 6.9 mph - N/A   Mostly Cloudy
3:53 PM 75.0 °F 69.1 °F 82% 30.02 in 10.0 mi West 4.6 mph - N/A   Scattered Clouds
4:53 PM 75.0 °F 68.0 °F 79% 30.03 in 10.0 mi West 10.4 mph - N/A   Mostly Cloudy
5:53 PM 73.0 °F 66.0 °F 79% 30.04 in 10.0 mi West 9.2 mph - N/A   Mostly Cloudy
6:53 PM 71.1 °F 66.0 °F 84% 30.06 in 10.0 mi West 6.9 mph - N/A   Mostly Cloudy
7:53 PM 71.1 °F 66.0 °F 84% 30.07 in 10.0 mi Variable 6.9 mph - N/A   Mostly Cloudy
8:53 PM 68.0 °F 64.9 °F 90% 30.08 in 10.0 mi NNW 4.6 mph - N/A   Scattered Clouds
9:34 PM 68.0 °F 66.2 °F 94% 30.10 in 10.0 mi Calm Calm - N/A   Mostly Cloudy
9:53 PM 69.8 °F 66.2 °F 88% 30.10 in 10.0 mi WNW 3.5 mph - N/A   Mostly Cloudy
10:53 PM 70.0 °F 66.0 °F 87% 30.10 in 10.0 mi NW 4.6 mph - N/A   Overcast
11:02 PM 69.8 °F 66.2 °F 88% 30.10 in 10.0 mi NW 4.6 mph - N/A   Overcast
11:53 PM 69.1 °F 64.9 °F 87% 30.10 in 10.0 mi NW 3.5 mph - N/A   Partly Cloudy